Погода в деревне Пяльма

Россия / Республика Карелия     62°24′05″N   35°53′24″E
темп.,
°C
ветер,
м/с
пор.,
м/с
влажн.,
%
обл.,
%
осадки,
мм/ч
давл.,
гПа
погр.,
м
15 мая, сб
сб1500:00+12юв227593 0.0 101330
03:00+10юв117598 0.0 101310
06:00+12вюв0070100 0.0 101218
09:00+17юв235397 0.0 1012457
12:00+22юв223935 0.0 10112064
15:00+21в2343100 0.0 10091522
18:00+22в36408 0.0 10082048
21:00+18всв51252100 0.0 1005558
16 мая, вс
вс1600:00+14всв41076100 1.0 1004447
03:00+13св3894100 6.8 1002406
06:00+13св0197100 4.4 1000161
09:00+12ю2597100 5.4 1001311
12:00+11ююз3593100 0.3 1002561
15:00+11зсз2395100 1.1 1004349
18:00+10зсз3996100 2.8 1005424
21:00+10з3994100 3.3 1007402
17 мая, пн
пн1700:00+9з2895100 0.0 1009285
03:00+8з2598100 0.0 1011141
06:00+8зсз2592100 0.0 1012182
09:00+12з23765 0.0 1014483
12:00+16юз23634 0.0 1015729
15:00+18юз12550 0.0 1014866
18:00+18ююз125832 0.0 1014657
21:00+14всв2277100 0.0 101420
18 мая, вт
вт1800:00+13в3979100 0.0 1014173
03:00+13в41183100 0.0 1013255
06:00+14вюв51378100 0.0 1012372
09:00+18вюв51469100 0.1 1010606
12:00+22юв61360100 0.0 1008932
15:00+26юв6134892 0.0 10071661
18:00+25юв51348100 0.0 10051521
21:00+21юв51459100 0.0 1005779
19 мая, ср
ср1900:00+19юв5166760 0.0 1005743
03:00+17юв5147347 0.0 1003452
06:00+18юв514715 0.0 1002620
09:00+22ю614595 0.0 10021437
12:00+23ю71350100 0.0 10021744
15:00+24ю6134477 0.0 10012191
18:00+19ю3971100 0.4 1000420
21:00+17ююв5137499 2.2 1000654